CCA8317 ZSPD-ZUGY

Flight info

Callsign CCA8317
Flight time N/A
Altitude 40100
Route NXD W131 AKDIM A470 SAGNU W132 OREXA P395 AVDIP W226 IPMUG W611 BIVAV W138 DYG W140 HUY W183 TRN W680 UBGUP
Aircraft A333/H-SDE3GHIJ2J3J5M1RVWXY/LB2D1

Departure

Time 2026-04-30 11:50
Airport Shanghai Pudong International Airport (ZSPD)

Arrival

Time N/A
Airport Guiyang Longdongbao International Airport (ZUGY)
Time Latitude Longitude Altitude Speed Heading
2026-04-30 11:27 31.14608 121.79855 38 ft 0 kts 71°
2026-04-30 11:37 31.14588 121.79787 37 ft 11 kts 71°
2026-04-30 11:38 31.14586 121.79778 37 ft 1 kts 78°
2026-04-30 11:38 31.14586 121.79751 36 ft 5 kts 124°
2026-04-30 11:38 31.14592 121.79743 36 ft 0 kts 161°
2026-04-30 11:38 31.14592 121.79742 36 ft 0 kts 162°
2026-04-30 11:43 31.14591 121.79743 36 ft 2 kts 162°
2026-04-30 11:44 31.14541 121.79761 36 ft 10 kts 162°
2026-04-30 11:44 31.14445 121.79775 33 ft 16 kts 218°
2026-04-30 11:44 31.14399 121.79649 31 ft 18 kts 250°
2026-04-30 11:44 31.14353 121.79509 30 ft 17 kts 220°
2026-04-30 11:45 31.14239 121.79531 30 ft 17 kts 158°
2026-04-30 11:45 31.14127 121.79572 29 ft 17 kts 163°
2026-04-30 11:45 31.14010 121.79617 27 ft 18 kts 162°
2026-04-30 11:45 31.13858 121.79674 26 ft 30 kts 162°
2026-04-30 11:46 31.13629 121.79759 26 ft 32 kts 161°
2026-04-30 11:46 31.13410 121.79842 26 ft 33 kts 163°
2026-04-30 11:46 31.13193 121.79924 26 ft 31 kts 162°
2026-04-30 11:46 31.12984 121.80003 26 ft 30 kts 163°
2026-04-30 11:47 31.12799 121.80074 26 ft 20 kts 168°
2026-04-30 11:47 31.12737 121.80006 26 ft 7 kts 253°
2026-04-30 11:47 31.12736 121.80003 26 ft 0 kts 253°
2026-04-30 11:48 31.12733 121.79989 26 ft 6 kts 253°
2026-04-30 11:48 31.12716 121.79914 26 ft 11 kts 274°
2026-04-30 11:49 31.12781 121.79861 26 ft 0 kts 341°
2026-04-30 11:50 31.12783 121.79860 26 ft 2 kts 341°
2026-04-30 11:50 31.13042 121.79764 27 ft 88 kts 341°
2026-04-30 11:50 31.13933 121.79427 38 ft 172 kts 344°
2026-04-30 11:50 31.15134 121.79005 897 ft 180 kts 343°
2026-04-30 11:51 31.16400 121.78548 1907 ft 199 kts 345°
2026-04-30 11:51 31.17723 121.78169 2911 ft 202 kts 342°
2026-04-30 11:51 31.19117 121.77648 3638 ft 216 kts 340°
2026-04-30 11:51 31.20578 121.77055 4309 ft 232 kts 339°
2026-04-30 11:52 31.22158 121.76395 5035 ft 248 kts 339°
2026-04-30 11:52 31.23769 121.75712 6045 ft 250 kts 339°
2026-04-30 11:52 31.25397 121.75023 7159 ft 249 kts 338°
2026-04-30 11:52 31.27037 121.74324 8078 ft 255 kts 337°
2026-04-30 11:53 31.28680 121.73624 9064 ft 257 kts 336°
2026-04-30 11:53 31.30361 121.72906 10030 ft 259 kts 336°
2026-04-30 11:53 31.32054 121.72173 10951 ft 261 kts 333°
2026-04-30 11:53 31.33485 121.70930 11765 ft 263 kts 310°
2026-04-30 11:54 31.34356 121.69016 11714 ft 283 kts 286°
2026-04-30 11:54 31.34397 121.66567 11798 ft 323 kts 264°
2026-04-30 11:54 31.33686 121.63892 11804 ft 349 kts 258°
2026-04-30 11:54 31.33145 121.61133 11783 ft 344 kts 262°
2026-04-30 11:55 31.32678 121.58405 11766 ft 340 kts 263°
2026-04-30 11:55 31.32227 121.55689 11765 ft 336 kts 263°
2026-04-30 11:55 31.31780 121.52991 11761 ft 336 kts 263°
2026-04-30 11:55 31.31334 121.50275 11793 ft 336 kts 264°
2026-04-30 11:56 31.30889 121.47576 11752 ft 337 kts 264°
2026-04-30 11:56 31.30435 121.44837 11773 ft 338 kts 264°
2026-04-30 11:56 31.29991 121.42152 11784 ft 336 kts 264°
2026-04-30 11:56 31.29544 121.39455 11753 ft 337 kts 264°
2026-04-30 11:57 31.29090 121.36719 11765 ft 337 kts 264°
2026-04-30 11:57 31.28463 121.34018 11763 ft 345 kts 251°
2026-04-30 11:57 31.27085 121.31692 11768 ft 359 kts 232°
2026-04-30 11:57 31.25070 121.29825 11785 ft 365 kts 224°
2026-04-30 11:58 31.23076 121.27950 11784 ft 363 kts 225°
2026-04-30 11:58 31.21110 121.26072 11781 ft 362 kts 225°
2026-04-30 11:58 31.19135 121.24176 11782 ft 363 kts 225°
2026-04-30 11:58 31.17177 121.22302 11782 ft 363 kts 225°
2026-04-30 11:59 31.15203 121.20413 11782 ft 363 kts 226°
2026-04-30 11:59 31.13253 121.18544 11893 ft 372 kts 225°
2026-04-30 11:59 31.11217 121.16601 12866 ft 374 kts 225°
2026-04-30 11:59 31.09228 121.14703 14070 ft 367 kts 226°
2026-04-30 12:00 31.07433 121.12636 14693 ft 362 kts 241°
2026-04-30 12:00 31.06418 121.10073 15710 ft 344 kts 259°
2026-04-30 12:00 31.05747 121.07388 16624 ft 343 kts 260°
2026-04-30 12:00 31.05088 121.04730 17508 ft 342 kts 260°
2026-04-30 12:01 31.04427 121.02062 18148 ft 346 kts 261°
2026-04-30 12:01 31.03758 120.99352 18827 ft 347 kts 260°
2026-04-30 12:01 31.03083 120.96639 19488 ft 349 kts 261°
2026-04-30 12:01 31.02408 120.93901 19947 ft 356 kts 260°
2026-04-30 12:02 31.01723 120.91144 20674 ft 354 kts 260°
2026-04-30 12:02 31.01033 120.88372 21349 ft 353 kts 261°
2026-04-30 12:02 31.00341 120.85586 21675 ft 361 kts 260°
2026-04-30 12:02 30.99637 120.82764 22118 ft 365 kts 260°
2026-04-30 12:03 30.98924 120.79896 22700 ft 365 kts 259°
2026-04-30 12:03 30.97510 120.74243 23737 ft 367 kts 260°
2026-04-30 12:03 30.96790 120.71355 24023 ft 373 kts 260°
2026-04-30 12:04 30.96057 120.68413 24507 ft 374 kts 259°
2026-04-30 12:04 30.95331 120.65529 25177 ft 370 kts 260°
2026-04-30 12:04 30.94611 120.62661 25534 ft 374 kts 259°
2026-04-30 12:04 30.93881 120.59740 25876 ft 377 kts 259°
2026-04-30 12:05 30.93133 120.56767 26229 ft 380 kts 259°
2026-04-30 12:05 30.92382 120.53785 26726 ft 380 kts 259°
2026-04-30 12:05 30.91640 120.50829 27037 ft 383 kts 259°
2026-04-30 12:05 30.90881 120.47827 27485 ft 383 kts 259°
2026-04-30 12:06 30.90065 120.44865 27779 ft 392 kts 255°
2026-04-30 12:06 30.88510 120.42093 27998 ft 416 kts 238°
2026-04-30 12:06 30.86125 120.39874 28449 ft 435 kts 223°
2026-04-30 12:06 30.83556 120.37902 29031 ft 430 kts 226°
2026-04-30 12:07 30.81061 120.35891 29380 ft 429 kts 226°
2026-04-30 12:07 30.78582 120.33872 29833 ft 428 kts 226°
2026-04-30 12:07 30.76108 120.31838 30130 ft 430 kts 226°
2026-04-30 12:07 30.73660 120.29830 30452 ft 431 kts 226°
2026-04-30 12:08 30.71170 120.27786 30968 ft 427 kts 226°
2026-04-30 12:08 30.68738 120.25792 31449 ft 423 kts 226°
2026-04-30 12:08 30.66272 120.23766 31805 ft 423 kts 227°
2026-04-30 12:08 30.63849 120.21780 32280 ft 419 kts 227°
2026-04-30 12:09 30.61420 120.19791 32604 ft 420 kts 227°
2026-04-30 12:09 30.59008 120.17813 32917 ft 420 kts 227°
2026-04-30 12:09 30.56616 120.15859 33358 ft 416 kts 227°
2026-04-30 12:09 30.54264 120.13934 33872 ft 412 kts 228°
2026-04-30 12:10 30.51938 120.12028 34032 ft 416 kts 227°
2026-04-30 12:10 30.49548 120.10075 34446 ft 414 kts 227°
2026-04-30 12:10 30.47208 120.08168 34790 ft 414 kts 227°
2026-04-30 12:10 30.44847 120.06242 35169 ft 413 kts 227°
2026-04-30 12:11 30.42440 120.04432 35618 ft 418 kts 223°
2026-04-30 12:11 30.39925 120.02765 36027 ft 416 kts 223°
2026-04-30 12:11 30.37420 120.01098 36323 ft 419 kts 223°
2026-04-30 12:11 30.34861 119.99392 36718 ft 417 kts 223°
2026-04-30 12:12 30.32384 119.97748 37317 ft 412 kts 223°
2026-04-30 12:12 30.29895 119.96085 37463 ft 417 kts 223°
2026-04-30 12:12 30.27354 119.94393 37777 ft 417 kts 223°
2026-04-30 12:12 30.24829 119.92718 38127 ft 417 kts 222°
2026-04-30 12:13 30.22327 119.91057 38221 ft 412 kts 223°
2026-04-30 12:13 30.17424 119.87804 38210 ft 406 kts 224°
2026-04-30 12:14 30.12459 119.84504 38211 ft 414 kts 223°
2026-04-30 12:14 30.07488 119.81210 38216 ft 412 kts 223°
2026-04-30 12:15 30.02895 119.77638 38190 ft 380 kts 239°
2026-04-30 12:15 30.01510 119.75145 38229 ft 362 kts 253°
2026-04-30 12:15 30.00349 119.72553 38206 ft 372 kts 248°
2026-04-30 12:16 29.97474 119.67580 38204 ft 373 kts 245°
2026-04-30 12:16 29.94500 119.62685 38203 ft 373 kts 245°
2026-04-30 12:17 29.89992 119.55356 38224 ft 376 kts 245°
2026-04-30 12:17 29.86985 119.50483 38199 ft 372 kts 245°
2026-04-30 12:18 29.83974 119.45602 38208 ft 374 kts 244°
2026-04-30 12:18 29.80978 119.40758 38204 ft 375 kts 244°
2026-04-30 12:19 29.77969 119.35898 38199 ft 373 kts 244°
2026-04-30 12:19 29.74923 119.30978 38232 ft 375 kts 244°
2026-04-30 12:20 29.71840 119.26018 38217 ft 374 kts 244°
2026-04-30 12:20 29.68778 119.21088 38218 ft 375 kts 244°
2026-04-30 12:21 29.65721 119.16137 38223 ft 370 kts 246°
2026-04-30 12:21 29.64637 119.13413 38222 ft 358 kts 256°
2026-04-30 12:21 29.63789 119.10678 38232 ft 362 kts 256°
2026-04-30 12:22 29.62015 119.05260 38220 ft 363 kts 256°
2026-04-30 12:22 29.60216 118.99838 38219 ft 362 kts 255°
2026-04-30 12:23 29.58413 118.94421 38235 ft 361 kts 256°
2026-04-30 12:23 29.56628 118.89072 38214 ft 360 kts 255°
2026-04-30 12:24 29.54825 118.83686 38214 ft 363 kts 255°
2026-04-30 12:24 29.53018 118.78290 38211 ft 363 kts 256°
2026-04-30 12:25 29.51207 118.72881 38207 ft 364 kts 255°
2026-04-30 12:25 29.49397 118.67483 38210 ft 364 kts 255°
2026-04-30 12:26 29.47575 118.62079 38210 ft 364 kts 255°
2026-04-30 12:26 29.45747 118.56649 38211 ft 365 kts 255°
2026-04-30 12:27 29.43921 118.51231 38210 ft 366 kts 256°
2026-04-30 12:27 29.42074 118.45777 38210 ft 366 kts 256°
2026-04-30 12:28 29.40231 118.40337 38211 ft 370 kts 255°
2026-04-30 12:28 29.38382 118.34872 38207 ft 368 kts 255°
2026-04-30 12:29 29.36526 118.29419 38226 ft 370 kts 254°
2026-04-30 12:29 29.34666 118.23938 38234 ft 370 kts 255°
2026-04-30 12:30 29.32779 118.18407 38234 ft 373 kts 255°
2026-04-30 12:30 29.30915 118.12942 38225 ft 367 kts 255°
2026-04-30 12:31 29.29051 118.07479 38230 ft 373 kts 255°
2026-04-30 12:31 29.27155 118.01944 38224 ft 374 kts 256°
2026-04-30 12:32 29.25262 117.96416 38215 ft 373 kts 254°
2026-04-30 12:32 29.23374 117.90928 38212 ft 375 kts 254°
2026-04-30 12:33 29.21462 117.85366 38211 ft 375 kts 254°
2026-04-30 12:33 29.19553 117.79817 38209 ft 376 kts 255°
2026-04-30 12:34 29.17649 117.74296 38206 ft 377 kts 255°
2026-04-30 12:34 29.15719 117.68713 38202 ft 377 kts 255°
2026-04-30 12:35 29.13791 117.63145 38200 ft 377 kts 254°
2026-04-30 12:35 29.11878 117.57619 38198 ft 376 kts 254°
2026-04-30 12:36 29.09937 117.52028 38199 ft 379 kts 255°
2026-04-30 12:36 29.07996 117.46444 38192 ft 378 kts 254°
2026-04-30 12:37 29.06065 117.40898 38190 ft 380 kts 255°
2026-04-30 12:37 29.04105 117.35278 38186 ft 382 kts 254°
2026-04-30 12:38 29.02142 117.29656 38201 ft 381 kts 254°
2026-04-30 12:38 29.00271 117.23985 38207 ft 380 kts 256°
2026-04-30 12:39 28.98462 117.18229 38200 ft 380 kts 255°
2026-04-30 12:39 28.96638 117.12446 38202 ft 380 kts 255°
2026-04-30 12:40 28.94789 117.06576 38202 ft 383 kts 255°
2026-04-30 12:40 28.92921 117.00678 38195 ft 384 kts 255°
2026-04-30 12:41 28.91082 116.94867 38189 ft 381 kts 255°
2026-04-30 12:41 28.89235 116.89053 38188 ft 384 kts 255°
2026-04-30 12:42 28.87395 116.83261 38185 ft 385 kts 255°
2026-04-30 12:42 28.85548 116.77460 38183 ft 384 kts 255°
2026-04-30 12:43 28.83707 116.71680 38185 ft 385 kts 255°
2026-04-30 12:43 28.81846 116.65864 38182 ft 384 kts 255°
2026-04-30 12:44 28.79988 116.60056 38177 ft 385 kts 256°
2026-04-30 12:44 28.78113 116.54208 38182 ft 386 kts 255°
2026-04-30 12:45 28.76212 116.48285 38181 ft 387 kts 255°
2026-04-30 12:45 28.74353 116.42505 38183 ft 387 kts 255°
2026-04-30 12:46 28.72491 116.36734 38181 ft 388 kts 255°
2026-04-30 12:46 28.70621 116.30943 38198 ft 387 kts 255°
2026-04-30 12:47 28.68749 116.25141 38197 ft 389 kts 255°
2026-04-30 12:47 28.66891 116.19408 38192 ft 390 kts 254°
2026-04-30 12:48 28.64998 116.13572 38190 ft 389 kts 254°
2026-04-30 12:48 28.63098 116.07724 38195 ft 392 kts 254°
2026-04-30 12:49 28.61218 116.01953 38189 ft 391 kts 255°
2026-04-30 12:49 28.59321 115.96135 38188 ft 392 kts 254°
2026-04-30 12:50 28.57421 115.90313 38188 ft 393 kts 255°
2026-04-30 12:50 28.55519 115.84501 38185 ft 391 kts 255°
2026-04-30 12:51 28.53623 115.78710 38184 ft 392 kts 255°
2026-04-30 12:51 28.51720 115.72909 38184 ft 393 kts 255°
2026-04-30 12:52 28.49804 115.67081 38187 ft 395 kts 255°
2026-04-30 12:52 28.48231 115.61217 38176 ft 387 kts 265°
2026-04-30 12:53 28.47463 115.55122 38178 ft 390 kts 265°
2026-04-30 12:53 28.46627 115.49034 38181 ft 390 kts 264°
2026-04-30 12:54 28.45787 115.42966 38182 ft 390 kts 265°
2026-04-30 12:54 28.44943 115.36923 38182 ft 391 kts 264°
2026-04-30 12:55 28.44084 115.30832 38199 ft 391 kts 263°
2026-04-30 12:55 28.43222 115.24715 38197 ft 393 kts 264°
2026-04-30 12:56 28.42362 115.18636 38195 ft 391 kts 263°
2026-04-30 12:56 28.41495 115.12519 38195 ft 392 kts 264°
2026-04-30 12:57 28.40629 115.06433 38194 ft 392 kts 264°